Greenville/Spartanburg, SC

5:58 AM EDT on May 27, 2017 (GMT -0400)
Greenville-Spartanburg International

Weather History for KGSP - May, 2014

Change the Weather History Date:

Sunday, May 18, 2014

  Actual Average Record
Temperature  
Mean Temperature 57 °F 69 °F  
Max Temperature 63 °F 81 °F 96 °F (1887)
Min Temperature 50 °F 58 °F 36 °F (1973)
Degree Days  
Heating Degree Days 8 1  
Month to date heating degree days 31 31  
Since 1 July heating degree days 3203 3037  
Cooling Degree Days 0 5  
Month to date cooling degree days 100 65  
Year to date cooling degree days 142 113  
Growing Degree Days 8 (Base 50)    
Moisture  
Dew Point 51 °F    
Average Humidity 85    
Maximum Humidity 100    
Minimum Humidity 69    
Precipitation  
Precipitation 0.16 in 0.13 in 2.20 in (2015)
Month to date precipitation 2.27 2.19  
Year to date precipitation 17.65 17.86  
Snow  
Snow 0.00 in 0.00 in 0.00 in ()
Month to date snowfall 0.0 0.0  
Since 1 July snowfall 7.2 4.7  
Snow Depth 0.00 in    
Sea Level Pressure  
Sea Level Pressure 30.21 in    
Wind  
Wind Speed 2 mph (NE)    
Max Wind Speed 8 mph    
Max Gust Speed 10 mph    
Visibility 10 miles    
Events Rain    
T = Trace of Precipitation, MM = Missing Value Source: NWS Daily Summary

Daily Weather History Graph

Daily Weather History Graph

Search for Another Location

Airport or City:

Trip Planner

Search our weather history database for the weather conditions in past years. The results will help you decide how hot, cold, wet, or windy it might be!

Date:

Astronomy

May. 18, 2014 Rise Set
Actual Time 6:23 AM EDT 8:27 PM EDT
Civil Twilight 5:55 AM EDT 8:55 PM EDT
Nautical Twilight 5:20 AM EDT 9:30 PM EDT
Astronomical Twilight 4:43 AM EDT 10:07 PM EDT
Moon No Moon Rise 10:09 AM EDT (5/18)
Length of Visible Light 15h 00m
Length of Day
14h 04m
Waning Gibbous, 81% of the Moon is Illuminated
May 18
Waning Gibbous
May 21
Last Quarter
May 28
New
Jun 5
First Quarter
Jun 13
Full

Hourly Weather History & Observations

Time (EDT) Temp. Dew Point Humidity Pressure Visibility Wind Dir Wind Speed Gust Speed Precip Events Conditions
12:53 AM 53.1 °F 48.0 °F 83% 30.17 in 10.0 mi NNW 5.8 mph - N/A   Clear
1:53 AM 54.0 °F 48.0 °F 80% 30.17 in 10.0 mi Calm Calm - N/A   Overcast
2:53 AM 55.9 °F 46.9 °F 72% 30.15 in 10.0 mi NNE 4.6 mph - N/A   Overcast
3:53 AM 54.0 °F 48.0 °F 80% 30.17 in 10.0 mi Calm Calm - 0.00 in Rain Light Rain
4:53 AM 53.1 °F 50.0 °F 89% 30.19 in 10.0 mi Calm Calm - 0.00 in Rain Light Rain
5:53 AM 52.0 °F 51.1 °F 97% 30.19 in 10.0 mi SE 3.5 mph - 0.03 in Rain Light Rain
6:53 AM 52.0 °F 51.1 °F 97% 30.21 in 8.0 mi Calm Calm - 0.02 in Rain Light Rain
7:53 AM 53.1 °F 51.1 °F 93% 30.22 in 10.0 mi North - - 0.04 in Rain Light Rain
8:53 AM 53.1 °F 51.1 °F 93% 30.24 in 10.0 mi NNE 3.5 mph - 0.03 in Rain Light Rain
9:53 AM 54.0 °F 51.1 °F 90% 30.25 in 10.0 mi NNE 4.6 mph - 0.03 in Rain Light Rain
10:53 AM 54.0 °F 51.1 °F 90% 30.23 in 10.0 mi NE 3.5 mph - 0.01 in Rain Light Rain
11:53 AM 57.0 °F 52.0 °F 83% 30.25 in 10.0 mi NNE 5.8 mph - 0.00 in   Overcast
11:57 AM 57.0 °F 51.1 °F 81% 30.26 in 10.0 mi NNE 4.6 mph - N/A   Overcast
12:53 PM 57.9 °F 51.1 °F 78% 30.24 in 10.0 mi Variable 3.5 mph - N/A   Overcast
1:53 PM 59.0 °F 50.0 °F 72% 30.23 in 10.0 mi Calm Calm - N/A   Mostly Cloudy
2:17 PM 60.1 °F 51.1 °F 72% 30.23 in 10.0 mi ENE 3.5 mph - N/A   Overcast
2:53 PM 59.0 °F 50.0 °F 72% 30.21 in 10.0 mi SE 4.6 mph - N/A   Overcast
3:53 PM 60.1 °F 50.0 °F 69% 30.21 in 10.0 mi SSW 4.6 mph - N/A   Overcast
4:53 PM 61.0 °F 51.1 °F 70% 30.19 in 10.0 mi Calm Calm - N/A   Overcast
5:53 PM 61.0 °F 50.0 °F 67% 30.19 in 10.0 mi Calm Calm - N/A   Overcast
6:53 PM 61.0 °F 52.0 °F 72% 30.18 in 10.0 mi Calm Calm - N/A   Overcast
7:53 PM 59.0 °F 53.1 °F 81% 30.18 in 10.0 mi SW 4.6 mph - N/A   Clear
8:53 PM 55.9 °F 52.0 °F 87% 30.19 in 10.0 mi SSW 5.8 mph - N/A   Scattered Clouds
9:53 PM 54.0 °F 52.0 °F 93% 30.20 in 10.0 mi Calm Calm - N/A   Clear
10:53 PM 53.1 °F 52.0 °F 96% 30.21 in 10.0 mi Calm Calm - N/A   Clear
11:53 PM 51.1 °F 50.0 °F 96% 30.22 in 10.0 mi Calm Calm - N/A   Clear